Time,TemperatureF,DewpointF,PressureIn,WindDirection,WindDirectionDegrees,WindSpeedMPH,WindSpeedGustMPH,Humidity,HourlyPrecipIn,Conditions,Clouds,dailyrainin,SoftwareType,DateUTC
2013-05-09 00:01:00,62.5,56.9,29.86,SW,225,1.8,5.4,82,0.00,,,0.00,WUHU216HW,2013-05-09 05:01:00,
2013-05-09 00:06:00,62.1,56.9,29.86,SW,225,1.1,2.7,83,0.00,,,0.00,WUHU216HW,2013-05-09 05:06:00,
2013-05-09 00:11:00,61.9,56.7,29.86,SW,225,0.0,1.8,83,0.00,,,0.00,WUHU216HW,2013-05-09 05:11:00,
2013-05-09 00:16:00,61.7,56.5,29.86,South,180,0.0,1.1,83,0.00,,,0.00,WUHU216HW,2013-05-09 05:16:00,
2013-05-09 00:21:00,61.6,56.3,29.85,ESE,113,0.0,0.2,83,0.00,,,0.00,WUHU216HW,2013-05-09 05:21:00,
2013-05-09 00:26:00,61.6,57.1,29.85,ESE,113,1.1,1.1,85,0.00,,,0.00,WUHU216HW,2013-05-09 05:26:00,
2013-05-09 00:31:00,61.6,56.7,29.86,NE,45,0.4,1.1,84,0.00,,,0.00,WUHU216HW,2013-05-09 05:31:00,
2013-05-09 00:36:00,61.4,56.5,29.86,NNE,23,0.0,1.1,84,0.00,,,0.00,WUHU216HW,2013-05-09 05:36:00,
2013-05-09 00:41:00,61.6,57.1,29.86,SSE,158,3.4,3.4,85,0.00,,,0.00,WUHU216HW,2013-05-09 05:41:00,
2013-05-09 00:46:00,61.6,56.7,29.85,South,180,1.6,3.4,84,0.00,,,0.00,WUHU216HW,2013-05-09 05:46:00,
2013-05-09 00:51:00,61.7,56.9,29.85,SSE,158,1.8,3.4,84,0.00,,,0.00,WUHU216HW,2013-05-09 05:51:00,
2013-05-09 00:56:00,61.9,57.1,29.86,South,180,4.0,4.0,84,0.00,,,0.00,WUHU216HW,2013-05-09 05:56:00,
2013-05-09 01:01:00,62.3,57.3,29.86,SSW,203,3.6,4.0,84,0.00,,,0.00,WUHU216HW,2013-05-09 06:01:00,
2013-05-09 01:06:00,62.5,57.3,29.86,SSE,158,3.4,4.0,83,0.00,,,0.00,WUHU216HW,2013-05-09 06:06:00,
2013-05-09 01:11:00,62.5,57.3,29.86,South,180,3.4,3.6,83,0.00,,,0.00,WUHU216HW,2013-05-09 06:11:00,
2013-05-09 01:16:00,62.8,57.3,29.88,WNW,293,4.7,4.7,82,0.00,,,0.00,WUHU216HW,2013-05-09 06:16:00,
2013-05-09 01:21:00,62.3,57.7,29.87,North,0,2.5,4.7,85,0.00,,,0.00,WUHU216HW,2013-05-09 06:21:00,
2013-05-09 01:26:00,61.9,57.7,29.88,NNW,338,1.8,4.7,86,0.00,,,0.00,WUHU216HW,2013-05-09 06:26:00,
2013-05-09 01:31:00,61.7,57.5,29.88,NNW,338,1.3,2.5,86,0.00,,,0.00,WUHU216HW,2013-05-09 06:31:00,
2013-05-09 01:36:00,61.7,57.9,29.87,North,0,1.3,1.8,87,0.00,,,0.00,WUHU216HW,2013-05-09 06:36:00,
2013-05-09 01:41:00,62.1,57.9,29.88,NNW,338,4.0,4.0,86,0.01,,,0.01,WUHU216HW,2013-05-09 06:41:00,
2013-05-09 01:46:00,61.9,57.7,29.87,NNW,338,0.0,4.0,86,0.01,,,0.01,WUHU216HW,2013-05-09 06:46:00,
2013-05-09 01:51:00,61.9,57.7,29.88,NNW,338,0.7,4.0,86,0.01,,,0.01,WUHU216HW,2013-05-09 06:51:00,
2013-05-09 01:56:00,61.6,57.3,29.87,North,0,1.1,1.1,86,0.01,,,0.01,WUHU216HW,2013-05-09 06:56:00,
2013-05-09 02:01:00,61.7,57.5,29.87,NNW,338,0.0,1.1,86,0.01,,,0.01,WUHU216HW,2013-05-09 07:01:00,
2013-05-09 02:06:00,61.6,57.3,29.87,NNW,338,0.0,1.1,86,0.01,,,0.01,WUHU216HW,2013-05-09 07:06:00,
2013-05-09 02:11:00,61.6,57.7,29.87,NNW,338,0.4,0.7,87,0.01,,,0.01,WUHU216HW,2013-05-09 07:11:00,
2013-05-09 02:16:00,61.4,57.5,29.86,NNE,23,3.1,3.1,87,0.01,,,0.01,WUHU216HW,2013-05-09 07:16:00,
2013-05-09 02:21:00,61.4,57.9,29.86,NNE,23,5.1,5.1,88,0.01,,,0.01,WUHU216HW,2013-05-09 07:21:00,
2013-05-09 02:26:00,60.8,57.6,29.86,NNE,23,4.3,5.1,89,0.01,,,0.01,WUHU216HW,2013-05-09 07:26:00,
2013-05-09 02:31:00,60.7,57.4,29.86,NNE,23,3.1,4.3,89,0.01,,,0.01,WUHU216HW,2013-05-09 07:31:00,
2013-05-09 02:36:00,60.5,57.6,29.86,North,0,4.3,4.3,90,0.01,,,0.01,WUHU216HW,2013-05-09 07:36:00,
2013-05-09 02:41:00,60.5,57.6,29.86,NNE,23,4.9,4.9,90,0.00,,,0.01,WUHU216HW,2013-05-09 07:41:00,
2013-05-09 02:46:00,60.3,57.7,29.86,NNE,23,6.0,6.0,91,0.00,,,0.01,WUHU216HW,2013-05-09 07:46:00,
2013-05-09 02:51:00,60.3,57.7,29.85,NNE,23,6.3,6.3,91,0.01,,,0.02,WUHU216HW,2013-05-09 07:51:00,
2013-05-09 02:56:00,60.1,57.5,29.85,NE,45,4.0,6.3,91,0.01,,,0.02,WUHU216HW,2013-05-09 07:56:00,
2013-05-09 03:01:00,60.1,57.5,29.85,NE,45,5.1,6.3,91,0.01,,,0.02,WUHU216HW,2013-05-09 08:01:00,
2013-05-09 03:06:00,60.1,57.5,29.85,NNE,23,6.7,6.7,91,0.01,,,0.02,WUHU216HW,2013-05-09 08:06:00,
2013-05-09 03:11:00,60.1,57.5,29.85,NNE,23,4.0,7.4,91,0.01,,,0.02,WUHU216HW,2013-05-09 08:11:00,
2013-05-09 03:16:00,59.9,57.3,29.84,NNE,23,4.3,7.4,91,0.01,,,0.02,WUHU216HW,2013-05-09 08:16:00,
2013-05-09 03:21:00,59.8,57.2,29.84,East,90,1.1,4.3,91,0.01,,,0.02,WUHU216HW,2013-05-09 08:21:00,
2013-05-09 03:26:00,59.9,57.6,29.84,ENE,68,1.1,4.3,92,0.01,,,0.02,WUHU216HW,2013-05-09 08:26:00,
2013-05-09 03:31:00,59.8,57.4,29.84,ENE,68,2.5,2.7,92,0.01,,,0.02,WUHU216HW,2013-05-09 08:31:00,
2013-05-09 03:36:00,59.8,57.2,29.85,NE,45,3.8,3.8,91,0.01,,,0.02,WUHU216HW,2013-05-09 08:36:00,
2013-05-09 03:41:00,59.8,57.4,29.85,ENE,68,3.4,3.8,92,0.01,,,0.02,WUHU216HW,2013-05-09 08:41:00,
2013-05-09 03:46:00,59.8,57.4,29.84,East,90,2.5,3.4,92,0.00,,,0.02,WUHU216HW,2013-05-09 08:46:00,
2013-05-09 03:51:00,59.9,57.6,29.85,East,90,2.5,3.4,92,0.00,,,0.02,WUHU216HW,2013-05-09 08:51:00,
2013-05-09 03:56:00,59.9,57.6,29.85,ENE,68,2.5,3.4,92,0.00,,,0.02,WUHU216HW,2013-05-09 08:56:00,
2013-05-09 04:01:00,59.9,57.6,29.85,NE,45,2.9,2.9,92,0.00,,,0.02,WUHU216HW,2013-05-09 09:01:00,
2013-05-09 04:06:00,59.9,57.6,29.85,NE,45,1.6,2.9,92,0.00,,,0.02,WUHU216HW,2013-05-09 09:06:00,
2013-05-09 04:11:00,59.9,57.6,29.85,East,90,2.7,2.9,92,0.00,,,0.02,WUHU216HW,2013-05-09 09:11:00,
2013-05-09 04:16:00,59.9,57.6,29.84,East,90,2.7,2.7,92,0.00,,,0.02,WUHU216HW,2013-05-09 09:16:00,
2013-05-09 04:21:00,59.9,57.6,29.84,NE,45,3.4,3.4,92,0.00,,,0.02,WUHU216HW,2013-05-09 09:21:00,
2013-05-09 04:26:00,60.1,57.8,29.84,ENE,68,1.1,3.4,92,0.00,,,0.02,WUHU216HW,2013-05-09 09:26:00,
2013-05-09 04:31:00,59.9,57.6,29.83,ENE,68,2.2,2.2,92,0.00,,,0.02,WUHU216HW,2013-05-09 09:31:00,
2013-05-09 04:36:00,59.9,57.6,29.83,East,90,1.3,2.2,92,0.00,,,0.02,WUHU216HW,2013-05-09 09:36:00,
2013-05-09 04:41:00,59.8,57.2,29.83,SE,135,1.1,2.2,91,0.00,,,0.02,WUHU216HW,2013-05-09 09:41:00,
2013-05-09 04:46:00,59.8,57.4,29.83,East,90,1.1,2.0,92,0.00,,,0.02,WUHU216HW,2013-05-09 09:46:00,
2013-05-09 04:51:00,59.6,57.2,29.83,ESE,113,0.9,1.1,92,0.00,,,0.02,WUHU216HW,2013-05-09 09:51:00,
2013-05-09 04:56:00,59.4,57.1,29.83,SE,135,0.9,1.1,92,0.00,,,0.02,WUHU216HW,2013-05-09 09:56:00,
2013-05-09 05:01:00,59.4,57.1,29.83,SSE,158,0.4,1.1,92,0.00,,,0.02,WUHU216HW,2013-05-09 10:01:00,
2013-05-09 05:06:00,59.4,56.8,29.83,South,180,0.0,0.9,91,0.00,,,0.02,WUHU216HW,2013-05-09 10:06:00,
2013-05-09 05:11:00,59.2,56.6,29.83,SE,135,0.9,0.9,91,0.00,,,0.02,WUHU216HW,2013-05-09 10:11:00,
2013-05-09 05:16:00,59.2,56.6,29.82,SE,135,0.0,0.9,91,0.00,,,0.02,WUHU216HW,2013-05-09 10:16:00,
2013-05-09 05:21:00,59.0,56.4,29.82,SE,135,0.0,0.9,91,0.00,,,0.02,WUHU216HW,2013-05-09 10:21:00,
2013-05-09 05:26:00,59.0,56.7,29.81,ESE,113,0.9,1.1,92,0.00,,,0.02,WUHU216HW,2013-05-09 10:26:00,
2013-05-09 05:31:00,59.0,56.4,29.82,ESE,113,0.0,1.1,91,0.00,,,0.02,WUHU216HW,2013-05-09 10:31:00,
2013-05-09 05:36:00,58.7,56.1,29.82,SE,135,0.4,0.9,91,0.00,,,0.02,WUHU216HW,2013-05-09 10:36:00,
2013-05-09 05:41:00,58.7,56.1,29.81,SSE,158,0.7,0.7,91,0.00,,,0.02,WUHU216HW,2013-05-09 10:41:00,
2013-05-09 05:46:00,58.7,55.8,29.82,SE,135,1.1,1.1,90,0.00,,,0.02,WUHU216HW,2013-05-09 10:46:00,
2013-05-09 05:51:00,58.7,55.8,29.81,ESE,113,1.6,1.6,90,0.00,,,0.02,WUHU216HW,2013-05-09 10:51:00,
2013-05-09 05:56:00,58.7,56.1,29.81,ESE,113,0.7,1.6,91,0.00,,,0.02,WUHU216HW,2013-05-09 10:56:00,
2013-05-09 06:01:00,58.7,56.1,29.81,ESE,113,1.8,1.8,91,0.00,,,0.02,WUHU216HW,2013-05-09 11:01:00,
2013-05-09 06:06:00,58.7,56.3,29.81,SE,135,0.9,1.8,92,0.00,,,0.02,WUHU216HW,2013-05-09 11:06:00,
2013-05-09 06:11:00,58.7,56.3,29.81,SE,135,1.8,1.8,92,0.00,,,0.02,WUHU216HW,2013-05-09 11:11:00,
2013-05-09 06:16:00,58.7,56.3,29.81,ESE,113,2.5,2.5,92,0.00,,,0.02,WUHU216HW,2013-05-09 11:16:00,
2013-05-09 06:21:00,58.7,56.3,29.81,SE,135,2.2,2.5,92,0.00,,,0.02,WUHU216HW,2013-05-09 11:21:00,
2013-05-09 06:26:00,58.7,56.3,29.81,SE,135,0.9,2.5,92,0.00,,,0.02,WUHU216HW,2013-05-09 11:26:00,
2013-05-09 06:31:00,58.7,56.1,29.81,SE,135,1.1,2.2,91,0.00,,,0.02,WUHU216HW,2013-05-09 11:31:00,
2013-05-09 06:36:00,58.7,56.1,29.81,SE,135,2.0,2.0,91,0.00,,,0.02,WUHU216HW,2013-05-09 11:36:00,
2013-05-09 06:41:00,58.9,56.5,29.81,SE,135,2.5,2.5,92,0.00,,,0.02,WUHU216HW,2013-05-09 11:41:00,
2013-05-09 06:46:00,58.9,56.3,29.82,South,180,2.0,2.5,91,0.00,,,0.02,WUHU216HW,2013-05-09 11:46:00,
2013-05-09 06:51:00,58.9,56.3,29.81,South,180,1.6,2.5,91,0.00,,,0.02,WUHU216HW,2013-05-09 11:51:00,
2013-05-09 06:56:00,58.9,56.3,29.81,SSE,158,1.3,2.0,91,0.00,,,0.02,WUHU216HW,2013-05-09 11:56:00,
2013-05-09 07:01:00,59.0,56.7,29.81,SSE,158,1.3,1.3,92,0.00,,,0.02,WUHU216HW,2013-05-09 12:01:00,
2013-05-09 07:06:00,59.0,56.7,29.81,SSE,158,2.5,2.5,92,0.00,,,0.02,WUHU216HW,2013-05-09 12:06:00,
2013-05-09 07:11:00,59.2,56.9,29.81,South,180,2.2,2.5,92,0.00,,,0.02,WUHU216HW,2013-05-09 12:11:00,
2013-05-09 07:16:00,59.4,57.1,29.81,SW,225,1.1,2.2,92,0.00,,,0.02,WUHU216HW,2013-05-09 12:16:00,
2013-05-09 07:21:00,59.4,57.1,29.82,WSW,248,0.0,2.2,92,0.00,,,0.02,WUHU216HW,2013-05-09 12:21:00,
2013-05-09 07:26:00,59.4,57.1,29.82,SSW,203,1.1,1.3,92,0.00,,,0.02,WUHU216HW,2013-05-09 12:26:00,
2013-05-09 07:31:00,59.4,57.1,29.82,WSW,248,0.0,1.3,92,0.00,,,0.02,WUHU216HW,2013-05-09 12:31:00,
2013-05-09 07:36:00,59.4,57.1,29.82,West,270,0.0,1.1,92,0.01,,,0.03,WUHU216HW,2013-05-09 12:36:00,
2013-05-09 07:41:00,59.4,57.1,29.82,WSW,248,0.0,0.0,92,0.01,,,0.03,WUHU216HW,2013-05-09 12:41:00,
2013-05-09 07:46:00,59.4,57.1,29.82,SW,225,1.6,1.6,92,0.01,,,0.03,WUHU216HW,2013-05-09 12:46:00,
2013-05-09 07:51:00,59.8,57.8,29.82,SW,225,2.5,2.5,93,0.01,,,0.03,WUHU216HW,2013-05-09 12:51:00,
2013-05-09 07:56:00,60.1,57.8,29.82,SSW,203,0.9,2.5,92,0.01,,,0.03,WUHU216HW,2013-05-09 12:56:00,
2013-05-09 08:01:00,60.1,57.8,29.82,SSW,203,1.3,1.3,92,0.01,,,0.03,WUHU216HW,2013-05-09 13:01:00,
2013-05-09 08:06:00,60.1,57.8,29.82,South,180,2.5,2.5,92,0.01,,,0.03,WUHU216HW,2013-05-09 13:06:00,
2013-05-09 08:11:00,60.3,57.7,29.82,SSW,203,1.8,2.7,91,0.01,,,0.03,WUHU216HW,2013-05-09 13:11:00,
2013-05-09 08:16:00,60.5,57.9,29.83,WSW,248,1.1,2.7,91,0.01,,,0.03,WUHU216HW,2013-05-09 13:16:00,
2013-05-09 08:22:00,60.5,57.9,29.83,NW,315,0.0,1.8,91,0.01,,,0.03,WUHU216HW,2013-05-09 13:22:00,
2013-05-09 08:27:00,60.1,57.5,29.83,SSE,158,2.0,2.0,91,0.02,,,0.04,WUHU216HW,2013-05-09 13:27:00,
2013-05-09 08:32:00,60.3,57.7,29.83,SSE,158,1.6,2.0,91,0.02,,,0.04,WUHU216HW,2013-05-09 13:32:00,
2013-05-09 08:37:00,60.1,57.5,29.83,SSE,158,3.4,3.4,91,0.01,,,0.04,WUHU216HW,2013-05-09 13:37:00,
2013-05-09 08:42:00,60.3,57.7,29.83,SSE,158,2.7,4.7,91,0.03,,,0.05,WUHU216HW,2013-05-09 13:42:00,
2013-05-09 08:47:00,60.5,57.9,29.82,SSE,158,1.8,4.7,91,0.03,,,0.06,WUHU216HW,2013-05-09 13:47:00,
2013-05-09 08:52:00,60.5,57.9,29.82,South,180,3.6,3.6,91,0.03,,,0.06,WUHU216HW,2013-05-09 13:52:00,
2013-05-09 08:57:00,60.5,57.9,29.82,South,180,3.8,3.8,91,0.03,,,0.06,WUHU216HW,2013-05-09 13:57:00,
2013-05-09 09:02:00,60.7,58.1,29.82,South,180,3.6,4.5,91,0.03,,,0.06,WUHU216HW,2013-05-09 14:02:00,
2013-05-09 09:07:00,60.7,58.1,29.83,SSW,203,5.1,5.1,91,0.03,,,0.06,WUHU216HW,2013-05-09 14:07:00,
2013-05-09 09:12:00,60.8,58.2,29.83,SSW,203,2.2,5.1,91,0.03,,,0.06,WUHU216HW,2013-05-09 14:12:00,
2013-05-09 09:17:00,60.8,58.2,29.83,SW,225,2.2,5.1,91,0.03,,,0.06,WUHU216HW,2013-05-09 14:17:00,
2013-05-09 09:22:00,60.8,58.2,29.83,WSW,248,2.0,4.0,91,0.02,,,0.06,WUHU216HW,2013-05-09 14:22:00,
2013-05-09 09:27:00,61.0,58.7,29.83,SSW,203,2.2,2.2,92,0.02,,,0.06,WUHU216HW,2013-05-09 14:27:00,
2013-05-09 09:32:00,61.6,59.2,29.83,WSW,248,2.0,2.2,92,0.02,,,0.06,WUHU216HW,2013-05-09 14:32:00,
2013-05-09 09:37:00,61.7,59.4,29.83,SSW,203,2.0,2.0,92,0.01,,,0.06,WUHU216HW,2013-05-09 14:37:00,
2013-05-09 09:42:00,61.9,59.0,29.83,SW,225,4.3,4.3,90,0.00,,,0.06,WUHU216HW,2013-05-09 14:42:00,
2013-05-09 09:47:00,62.3,59.4,29.83,SW,225,3.4,4.3,90,0.00,,,0.06,WUHU216HW,2013-05-09 14:47:00,
2013-05-09 09:52:00,62.6,59.4,29.84,SW,225,3.8,4.3,89,0.00,,,0.06,WUHU216HW,2013-05-09 14:52:00,
2013-05-09 09:57:00,63.0,59.8,29.84,SW,225,3.4,3.8,89,0.00,,,0.06,WUHU216HW,2013-05-09 14:57:00,
2013-05-09 10:02:00,63.7,60.1,29.85,SSW,203,3.6,5.8,88,0.00,,,0.06,WUHU216HW,2013-05-09 15:02:00,
2013-05-09 10:07:00,64.1,60.2,29.85,SW,225,2.5,5.8,87,0.00,,,0.06,WUHU216HW,2013-05-09 15:07:00,
2013-05-09 10:12:00,64.8,60.8,29.85,West,270,4.0,4.0,87,0.00,,,0.06,WUHU216HW,2013-05-09 15:12:00,
2013-05-09 10:17:00,65.0,60.4,29.85,West,270,3.6,4.0,85,0.00,,,0.06,WUHU216HW,2013-05-09 15:17:00,
2013-05-09 10:22:00,65.0,60.7,29.85,SW,225,2.5,3.6,86,0.00,,,0.06,WUHU216HW,2013-05-09 15:22:00,
2013-05-09 10:27:00,65.2,60.8,29.85,WNW,293,0.9,3.6,86,0.00,,,0.06,WUHU216HW,2013-05-09 15:27:00,
2013-05-09 10:32:00,65.7,60.8,29.85,SW,225,4.0,4.0,84,0.00,,,0.06,WUHU216HW,2013-05-09 15:32:00,
2013-05-09 10:37:00,65.7,61.0,29.85,SSW,203,1.8,4.0,85,0.00,,,0.06,WUHU216HW,2013-05-09 15:37:00,
2013-05-09 10:42:00,66.2,61.2,29.85,SW,225,4.0,4.0,84,0.00,,,0.06,WUHU216HW,2013-05-09 15:42:00,
2013-05-09 10:47:00,67.3,61.4,29.85,SW,225,5.4,5.4,81,0.00,,,0.06,WUHU216HW,2013-05-09 15:47:00,
2013-05-09 10:52:00,67.3,61.4,29.84,SSW,203,2.9,5.4,81,0.00,,,0.06,WUHU216HW,2013-05-09 15:52:00,
2013-05-09 10:57:00,67.3,62.0,29.85,SW,225,2.2,5.4,83,0.00,,,0.06,WUHU216HW,2013-05-09 15:57:00,
2013-05-09 11:02:00,68.0,61.0,29.85,SSW,203,3.6,3.6,78,0.00,,,0.06,WUHU216HW,2013-05-09 16:02:00,
2013-05-09 11:07:00,68.0,61.0,29.85,SW,225,2.5,3.6,78,0.00,,,0.06,WUHU216HW,2013-05-09 16:07:00,
2013-05-09 11:12:00,69.8,61.1,29.85,SSW,203,2.9,5.8,74,0.00,,,0.06,WUHU216HW,2013-05-09 16:12:00,
2013-05-09 11:17:00,70.6,61.8,29.85,SSE,158,7.6,7.6,74,0.00,,,0.06,WUHU216HW,2013-05-09 16:17:00,
2013-05-09 11:22:00,70.2,61.5,29.84,SSW,203,4.3,7.6,74,0.00,,,0.06,WUHU216HW,2013-05-09 16:22:00,
2013-05-09 11:27:00,70.4,61.3,29.85,SSW,203,2.7,7.6,73,0.00,,,0.06,WUHU216HW,2013-05-09 16:27:00,
2013-05-09 11:32:00,70.9,59.9,29.85,WSW,248,2.5,4.3,68,0.00,,,0.06,WUHU216HW,2013-05-09 16:32:00,
2013-05-09 11:37:00,70.9,59.4,29.85,SW,225,8.3,8.3,67,0.00,,,0.06,WUHU216HW,2013-05-09 16:37:00,
2013-05-09 11:42:00,71.3,60.1,29.85,SW,225,3.4,8.3,68,0.00,,,0.06,WUHU216HW,2013-05-09 16:42:00,
2013-05-09 11:47:00,72.0,61.3,29.85,West,270,5.4,8.3,69,0.00,,,0.06,WUHU216HW,2013-05-09 16:47:00,
2013-05-09 11:52:00,72.0,60.8,29.85,SW,225,3.6,5.4,68,0.00,,,0.06,WUHU216HW,2013-05-09 16:52:00,
2013-05-09 11:57:00,72.0,60.4,29.85,SSW,203,6.3,6.3,67,0.00,,,0.06,WUHU216HW,2013-05-09 16:57:00,
2013-05-09 12:02:00,72.2,61.5,29.85,WSW,248,4.7,7.2,69,0.00,,,0.06,WUHU216HW,2013-05-09 17:02:00,
2013-05-09 12:07:00,72.5,60.0,29.84,WSW,248,4.7,7.2,65,0.00,,,0.06,WUHU216HW,2013-05-09 17:07:00,
2013-05-09 12:12:00,72.9,59.9,29.84,NNW,338,3.1,4.7,64,0.00,,,0.06,WUHU216HW,2013-05-09 17:12:00,
2013-05-09 12:17:00,73.1,60.6,29.84,SSE,158,2.2,4.9,65,0.00,,,0.06,WUHU216HW,2013-05-09 17:17:00,
2013-05-09 12:22:00,73.8,60.0,29.84,South,180,1.8,4.9,62,0.00,,,0.06,WUHU216HW,2013-05-09 17:22:00,
2013-05-09 12:27:00,73.8,60.4,29.84,South,180,3.4,3.4,63,0.00,,,0.06,WUHU216HW,2013-05-09 17:27:00,
2013-05-09 12:32:00,74.3,61.4,29.84,SW,225,4.7,4.7,64,0.00,,,0.06,WUHU216HW,2013-05-09 17:32:00,
2013-05-09 12:37:00,73.8,60.4,29.84,SW,225,4.0,4.7,63,0.00,,,0.06,WUHU216HW,2013-05-09 17:37:00,
2013-05-09 12:42:00,73.6,60.2,29.84,SSW,203,1.8,4.7,63,0.00,,,0.06,WUHU216HW,2013-05-09 17:42:00,
2013-05-09 12:47:00,73.8,60.9,29.84,SW,225,5.1,5.1,64,0.00,,,0.06,WUHU216HW,2013-05-09 17:47:00,
2013-05-09 12:52:00,73.8,61.3,29.84,SW,225,3.8,5.1,65,0.00,,,0.06,WUHU216HW,2013-05-09 17:52:00,
2013-05-09 12:57:00,73.8,60.0,29.84,SW,225,3.1,5.1,62,0.00,,,0.06,WUHU216HW,2013-05-09 17:57:00,
2013-05-09 13:02:00,74.2,59.4,29.83,SSW,203,6.7,7.2,60,0.00,,,0.06,WUHU216HW,2013-05-09 18:02:00,
2013-05-09 13:07:00,74.3,59.0,29.84,WSW,248,4.3,7.2,59,0.00,,,0.06,WUHU216HW,2013-05-09 18:07:00,
2013-05-09 13:12:00,74.9,60.6,29.83,South,180,6.7,6.7,61,0.00,,,0.06,WUHU216HW,2013-05-09 18:12:00,
2013-05-09 13:17:00,74.5,59.2,29.83,South,180,2.2,6.7,59,0.00,,,0.06,WUHU216HW,2013-05-09 18:17:00,
2013-05-09 13:22:00,74.5,60.2,29.84,SW,225,2.7,6.7,61,0.00,,,0.06,WUHU216HW,2013-05-09 18:22:00,
2013-05-09 13:27:00,75.2,58.5,29.83,North,0,4.9,4.9,56,0.00,,,0.06,WUHU216HW,2013-05-09 18:27:00,
2013-05-09 13:32:00,75.8,57.4,29.84,WSW,248,4.3,4.9,53,0.00,,,0.06,WUHU216HW,2013-05-09 18:32:00,
2013-05-09 13:37:00,75.4,58.6,29.84,West,270,4.0,4.3,56,0.00,,,0.06,WUHU216HW,2013-05-09 18:37:00,
2013-05-09 13:42:00,76.1,58.8,29.83,SSW,203,6.9,6.9,55,0.00,,,0.06,WUHU216HW,2013-05-09 18:42:00,
2013-05-09 13:47:00,76.3,59.4,29.83,SSW,203,4.0,6.9,56,0.00,,,0.06,WUHU216HW,2013-05-09 18:47:00,
2013-05-09 13:52:00,76.3,56.4,29.83,SW,225,4.9,6.9,50,0.00,,,0.06,WUHU216HW,2013-05-09 18:52:00,
2013-05-09 13:57:00,75.8,57.4,29.84,NE,45,1.6,6.9,53,0.00,,,0.06,WUHU216HW,2013-05-09 18:57:00,
2013-05-09 14:02:00,74.5,56.7,29.84,SW,225,3.8,4.9,54,0.00,,,0.06,WUHU216HW,2013-05-09 19:02:00,
2013-05-09 14:07:00,74.9,57.1,29.83,West,270,3.4,3.8,54,0.00,,,0.06,WUHU216HW,2013-05-09 19:07:00,
2013-05-09 14:12:00,76.1,58.8,29.83,WSW,248,2.2,3.8,55,0.00,,,0.06,WUHU216HW,2013-05-09 19:12:00,
2013-05-09 14:17:00,77.8,58.8,29.83,NW,315,1.8,3.4,52,0.00,,,0.06,WUHU216HW,2013-05-09 19:17:00,
2013-05-09 14:22:00,77.6,57.5,29.83,WSW,248,5.1,5.1,50,0.00,,,0.06,WUHU216HW,2013-05-09 19:22:00,
2013-05-09 14:27:00,77.6,57.5,29.82,South,180,8.1,8.1,50,0.00,,,0.06,WUHU216HW,2013-05-09 19:27:00,
2013-05-09 14:32:00,77.2,58.2,29.82,SSW,203,3.6,8.9,52,0.00,,,0.06,WUHU216HW,2013-05-09 19:32:00,
2013-05-09 14:37:00,77.4,57.4,29.82,NW,315,3.4,8.9,50,0.00,,,0.06,WUHU216HW,2013-05-09 19:37:00,
2013-05-09 14:42:00,76.9,57.4,29.82,SSW,203,13.9,13.9,51,0.00,,,0.06,WUHU216HW,2013-05-09 19:42:00,
2013-05-09 14:47:00,76.1,58.2,29.82,SSW,203,4.0,13.9,54,0.00,,,0.06,WUHU216HW,2013-05-09 19:47:00,
2013-05-09 14:52:00,77.4,60.0,29.82,SSE,158,1.6,4.5,55,0.00,,,0.06,WUHU216HW,2013-05-09 19:52:00,
2013-05-09 14:57:00,78.1,59.0,29.82,SW,225,5.4,5.4,52,0.00,,,0.06,WUHU216HW,2013-05-09 19:57:00,
2013-05-09 15:02:00,77.0,60.1,29.82,NNW,338,1.6,5.4,56,0.00,,,0.06,WUHU216HW,2013-05-09 20:02:00,
2013-05-09 15:07:00,77.2,58.2,29.82,SW,225,2.7,4.0,52,0.00,,,0.06,WUHU216HW,2013-05-09 20:07:00,
2013-05-09 15:12:00,77.4,57.9,29.82,South,180,7.8,7.8,51,0.00,,,0.06,WUHU216HW,2013-05-09 20:12:00,
2013-05-09 15:17:00,77.2,57.3,29.82,SW,225,4.5,7.8,50,0.00,,,0.06,WUHU216HW,2013-05-09 20:17:00,
2013-05-09 15:22:00,77.8,57.7,29.82,WSW,248,6.5,6.5,50,0.00,,,0.06,WUHU216HW,2013-05-09 20:22:00,
2013-05-09 15:27:00,77.9,57.2,29.82,SSW,203,8.9,8.9,49,0.00,,,0.06,WUHU216HW,2013-05-09 20:27:00,
2013-05-09 15:32:00,76.5,57.1,29.82,WSW,248,4.0,8.9,51,0.00,,,0.06,WUHU216HW,2013-05-09 20:32:00,
2013-05-09 15:37:00,76.3,57.4,29.82,SSE,158,4.5,6.5,52,0.00,,,0.06,WUHU216HW,2013-05-09 20:37:00,
2013-05-09 15:42:00,75.1,57.2,29.82,SSW,203,5.6,5.6,54,0.00,,,0.06,WUHU216HW,2013-05-09 20:42:00,
2013-05-09 15:47:00,74.0,57.3,29.82,SSW,203,4.0,5.6,56,0.00,,,0.06,WUHU216HW,2013-05-09 20:47:00,
2013-05-09 15:52:00,74.0,57.7,29.83,SW,225,5.4,5.4,57,0.00,,,0.06,WUHU216HW,2013-05-09 20:52:00,
2013-05-09 15:57:00,73.8,57.5,29.83,SW,225,5.4,5.4,57,0.00,,,0.06,WUHU216HW,2013-05-09 20:57:00,
2013-05-09 16:02:00,73.4,57.7,29.83,SSW,203,3.6,5.4,58,0.00,,,0.06,WUHU216HW,2013-05-09 21:02:00,
2013-05-09 16:07:00,73.4,57.7,29.83,SSW,203,5.1,6.3,58,0.00,,,0.06,WUHU216HW,2013-05-09 21:07:00,
2013-05-09 16:12:00,73.6,57.9,29.83,WSW,248,2.9,6.3,58,0.00,,,0.06,WUHU216HW,2013-05-09 21:12:00,
2013-05-09 16:17:00,73.8,57.5,29.83,SSW,203,4.5,5.1,57,0.00,,,0.06,WUHU216HW,2013-05-09 21:17:00,
2013-05-09 16:22:00,74.2,57.4,29.83,SSW,203,4.7,4.7,56,0.00,,,0.06,WUHU216HW,2013-05-09 21:22:00,
2013-05-09 16:27:00,74.0,58.2,29.82,WSW,248,5.4,5.4,58,0.00,,,0.06,WUHU216HW,2013-05-09 21:27:00,
2013-05-09 16:32:00,73.3,58.5,29.82,WNW,293,5.1,6.7,60,0.00,,,0.06,WUHU216HW,2013-05-09 21:32:00,
2013-05-09 16:37:00,73.3,59.0,29.82,SW,225,4.0,6.7,61,0.00,,,0.06,WUHU216HW,2013-05-09 21:37:00,
2013-05-09 16:42:00,73.3,58.1,29.82,West,270,2.7,5.1,59,0.00,,,0.06,WUHU216HW,2013-05-09 21:42:00,
2013-05-09 16:47:00,72.7,58.1,29.82,SW,225,6.3,6.3,60,0.00,,,0.06,WUHU216HW,2013-05-09 21:47:00,
2013-05-09 16:52:00,72.5,58.3,29.82,SSW,203,1.1,6.3,61,0.00,,,0.06,WUHU216HW,2013-05-09 21:52:00,
2013-05-09 16:57:00,72.2,58.4,29.82,South,180,1.8,6.3,62,0.00,,,0.06,WUHU216HW,2013-05-09 21:57:00,
2013-05-09 17:02:00,71.1,58.7,29.83,WSW,248,3.4,3.4,65,0.00,,,0.06,WUHU216HW,2013-05-09 22:02:00,
2013-05-09 17:07:00,70.6,58.6,29.83,SSW,203,8.7,8.7,66,0.00,,,0.06,WUHU216HW,2013-05-09 22:07:00,
2013-05-09 17:12:00,70.0,58.5,29.84,SSW,203,2.7,8.7,67,0.00,,,0.06,WUHU216HW,2013-05-09 22:12:00,
2013-05-09 17:17:00,69.1,57.7,29.84,NNW,338,1.8,8.7,67,0.00,,,0.06,WUHU216HW,2013-05-09 22:17:00,
2013-05-09 17:22:00,66.8,59.3,29.86,WSW,248,8.9,8.9,77,0.00,,,0.06,WUHU216HW,2013-05-09 22:22:00,
2013-05-09 17:27:00,63.5,57.6,29.85,WNW,293,0.9,8.9,81,0.41,,,0.47,WUHU216HW,2013-05-09 22:27:00,
2013-05-09 17:32:00,62.8,57.3,29.85,NNW,338,0.0,8.9,82,0.43,,,0.49,WUHU216HW,2013-05-09 22:32:00,
2013-05-09 17:37:00,62.1,57.9,29.84,North,0,6.0,6.0,86,0.48,,,0.51,WUHU216HW,2013-05-09 22:37:00,
2013-05-09 17:42:00,61.6,57.7,29.84,SSW,203,2.7,6.0,87,0.59,,,0.65,WUHU216HW,2013-05-09 22:42:00,
2013-05-09 17:47:00,61.6,57.7,29.84,North,0,2.2,6.0,87,0.59,,,0.65,WUHU216HW,2013-05-09 22:47:00,
2013-05-09 17:52:00,61.6,57.7,29.84,NNW,338,0.0,2.7,87,0.61,,,0.66,WUHU216HW,2013-05-09 22:52:00,
2013-05-09 17:57:00,61.4,57.5,29.84,SSW,203,2.2,2.2,87,0.62,,,0.68,WUHU216HW,2013-05-09 22:57:00,
2013-05-09 18:02:00,61.4,57.5,29.84,North,0,1.8,2.2,87,0.62,,,0.68,WUHU216HW,2013-05-09 23:02:00,
2013-05-09 18:07:00,61.6,58.1,29.84,WSW,248,0.7,2.2,88,0.62,,,0.68,WUHU216HW,2013-05-09 23:07:00,
2013-05-09 18:12:00,61.9,58.7,29.84,WSW,248,2.0,2.0,89,0.62,,,0.68,WUHU216HW,2013-05-09 23:12:00,
2013-05-09 18:17:00,62.5,58.9,29.84,NNW,338,1.3,2.0,88,0.62,,,0.68,WUHU216HW,2013-05-09 23:17:00,
2013-05-09 18:22:00,63.9,60.7,29.83,WNW,293,0.0,2.0,89,0.43,,,0.68,WUHU216HW,2013-05-09 23:22:00,
2013-05-09 18:27:00,66.6,61.6,29.83,SSW,203,1.6,1.8,84,0.21,,,0.68,WUHU216HW,2013-05-09 23:27:00,
2013-05-09 18:32:00,66.2,61.6,29.83,NNW,338,0.4,1.8,85,0.17,,,0.68,WUHU216HW,2013-05-09 23:32:00,
2013-05-09 18:37:00,65.9,60.9,29.83,West,270,0.0,1.6,84,0.14,,,0.68,WUHU216HW,2013-05-09 23:37:00,
2013-05-09 18:42:00,65.2,60.2,29.83,SW,225,1.1,1.3,84,0.03,,,0.68,WUHU216HW,2013-05-09 23:42:00,
2013-05-09 18:47:00,64.4,59.1,29.83,SSW,203,0.0,1.3,83,0.03,,,0.68,WUHU216HW,2013-05-09 23:47:00,
2013-05-09 18:52:00,64.1,59.1,29.83,SSW,203,0.0,0.0,84,0.00,,,0.68,WUHU216HW,2013-05-09 23:52:00,
2013-05-09 18:57:00,63.9,59.0,29.83,SW,225,0.0,0.0,84,0.00,,,0.68,WUHU216HW,2013-05-09 23:57:00,
2013-05-09 19:02:00,63.7,59.1,29.83,NW,315,0.0,0.0,85,0.00,,,0.68,WUHU216HW,2013-05-10 00:02:00,
2013-05-09 19:07:00,63.7,59.5,29.83,North,0,0.2,0.9,86,0.00,,,0.68,WUHU216HW,2013-05-10 00:07:00,
2013-05-09 19:12:00,63.7,59.9,29.83,NNW,338,0.0,0.9,87,0.00,,,0.68,WUHU216HW,2013-05-10 00:12:00,
2013-05-09 19:17:00,63.9,60.0,29.83,NNW,338,0.7,0.7,87,0.00,,,0.68,WUHU216HW,2013-05-10 00:17:00,
2013-05-09 19:22:00,64.1,60.2,29.83,NNW,338,1.3,1.3,87,0.00,,,0.68,WUHU216HW,2013-05-10 00:22:00,
2013-05-09 19:27:00,64.4,60.6,29.83,North,0,0.4,1.3,87,0.00,,,0.68,WUHU216HW,2013-05-10 00:27:00,
2013-05-09 19:32:00,64.4,60.2,29.83,North,0,0.4,1.3,86,0.00,,,0.68,WUHU216HW,2013-05-10 00:32:00,
2013-05-09 19:37:00,64.4,60.2,29.83,NNW,338,0.7,0.7,86,0.00,,,0.68,WUHU216HW,2013-05-10 00:37:00,
2013-05-09 19:42:00,64.4,60.2,29.83,WNW,293,0.0,0.7,86,0.00,,,0.68,WUHU216HW,2013-05-10 00:42:00,
2013-05-09 19:47:00,64.3,60.0,29.83,NNW,338,0.9,0.9,86,0.00,,,0.68,WUHU216HW,2013-05-10 00:47:00,
2013-05-09 19:52:00,64.3,60.0,29.83,NNW,338,0.0,0.9,86,0.00,,,0.68,WUHU216HW,2013-05-10 00:52:00,
2013-05-09 19:57:00,64.1,60.2,29.84,NNW,338,0.0,0.9,87,0.00,,,0.68,WUHU216HW,2013-05-10 00:57:00,
2013-05-09 20:02:00,63.7,60.1,29.83,NNW,338,0.4,0.4,88,0.00,,,0.68,WUHU216HW,2013-05-10 01:02:00,
2013-05-09 20:07:00,63.7,60.1,29.84,NNW,338,0.2,0.4,88,0.00,,,0.68,WUHU216HW,2013-05-10 01:07:00,
2013-05-09 20:12:00,63.4,60.1,29.84,NNW,338,0.0,0.4,89,0.00,,,0.68,WUHU216HW,2013-05-10 01:12:00,
2013-05-09 20:17:00,63.0,59.8,29.84,West,270,0.2,0.2,89,0.00,,,0.68,WUHU216HW,2013-05-10 01:17:00,
2013-05-09 20:22:00,62.8,59.6,29.84,West,270,0.0,0.2,89,0.00,,,0.68,WUHU216HW,2013-05-10 01:22:00,
2013-05-09 20:27:00,62.6,59.4,29.84,West,270,0.0,0.2,89,0.00,,,0.68,WUHU216HW,2013-05-10 01:27:00,
2013-05-09 20:32:00,62.3,59.0,29.84,West,270,0.0,0.0,89,0.00,,,0.68,WUHU216HW,2013-05-10 01:32:00,
2013-05-09 20:37:00,62.3,59.0,29.84,West,270,0.0,0.0,89,0.00,,,0.68,WUHU216HW,2013-05-10 01:37:00,
2013-05-09 20:42:00,61.9,58.4,29.84,West,270,0.0,0.0,88,0.00,,,0.68,WUHU216HW,2013-05-10 01:42:00,
2013-05-09 20:47:00,61.6,58.3,29.85,North,0,0.0,0.9,89,0.00,,,0.68,WUHU216HW,2013-05-10 01:47:00,
2013-05-09 20:52:00,61.4,58.1,29.85,North,0,0.0,0.9,89,0.00,,,0.68,WUHU216HW,2013-05-10 01:52:00,
2013-05-09 20:57:00,61.2,58.0,29.86,North,0,0.0,0.0,89,0.00,,,0.68,WUHU216HW,2013-05-10 01:57:00,
2013-05-09 21:02:00,61.0,57.8,29.85,North,0,0.0,0.0,89,0.00,,,0.68,WUHU216HW,2013-05-10 02:02:00,
2013-05-09 21:07:00,61.0,58.1,29.86,North,0,0.0,0.0,90,0.00,,,0.68,WUHU216HW,2013-05-10 02:07:00,
2013-05-09 21:12:00,61.0,58.1,29.86,North,0,0.0,0.0,90,0.00,,,0.68,WUHU216HW,2013-05-10 02:12:00,
2013-05-09 21:17:00,60.8,58.0,29.86,NNE,23,0.0,0.0,90,0.00,,,0.68,WUHU216HW,2013-05-10 02:17:00,
2013-05-09 21:22:00,60.8,58.0,29.86,NNE,23,0.0,0.0,90,0.00,,,0.68,WUHU216HW,2013-05-10 02:22:00,
2013-05-09 21:27:00,60.8,58.0,29.86,NNE,23,0.0,0.0,90,0.00,,,0.68,WUHU216HW,2013-05-10 02:27:00,
2013-05-09 21:32:00,60.7,57.8,29.86,NNE,23,0.0,0.0,90,0.00,,,0.68,WUHU216HW,2013-05-10 02:32:00,
2013-05-09 21:37:00,60.5,57.6,29.86,NNE,23,0.0,0.0,90,0.00,,,0.68,WUHU216HW,2013-05-10 02:37:00,
2013-05-09 21:42:00,60.5,57.6,29.86,NNE,23,0.0,0.0,90,0.00,,,0.68,WUHU216HW,2013-05-10 02:42:00,
2013-05-09 21:47:00,60.5,57.6,29.86,NNE,23,0.0,0.0,90,0.00,,,0.68,WUHU216HW,2013-05-10 02:47:00,
2013-05-09 21:52:00,60.5,57.6,29.87,NNE,23,0.0,0.0,90,0.00,,,0.68,WUHU216HW,2013-05-10 02:52:00,
2013-05-09 21:57:00,60.8,58.0,29.87,North,0,0.0,0.0,90,0.00,,,0.68,WUHU216HW,2013-05-10 02:57:00,
2013-05-09 22:02:00,61.0,58.1,29.87,NW,315,0.0,0.0,90,0.00,,,0.68,WUHU216HW,2013-05-10 03:02:00,
2013-05-09 22:07:00,60.8,58.0,29.87,NW,315,0.0,0.0,90,0.00,,,0.68,WUHU216HW,2013-05-10 03:07:00,
2013-05-09 22:12:00,60.7,57.8,29.87,NNW,338,0.4,0.4,90,0.00,,,0.68,WUHU216HW,2013-05-10 03:12:00,
2013-05-09 22:17:00,60.7,58.1,29.87,NW,315,0.0,0.4,91,0.00,,,0.68,WUHU216HW,2013-05-10 03:17:00,
2013-05-09 22:22:00,60.5,57.9,29.88,NW,315,0.0,0.4,91,0.00,,,0.68,WUHU216HW,2013-05-10 03:22:00,
2013-05-09 22:27:00,60.3,57.7,29.88,NW,315,0.0,0.0,91,0.00,,,0.68,WUHU216HW,2013-05-10 03:27:00,
2013-05-09 22:32:00,60.1,57.5,29.88,NW,315,0.0,0.0,91,0.00,,,0.68,WUHU216HW,2013-05-10 03:32:00,
2013-05-09 22:37:00,60.1,57.5,29.89,NW,315,0.0,0.2,91,0.00,,,0.68,WUHU216HW,2013-05-10 03:37:00,
2013-05-09 22:42:00,60.1,57.5,29.88,NNW,338,0.0,0.2,91,0.00,,,0.68,WUHU216HW,2013-05-10 03:42:00,
2013-05-09 22:47:00,59.8,57.2,29.88,NNW,338,0.0,0.2,91,0.00,,,0.68,WUHU216HW,2013-05-10 03:47:00,
2013-05-09 22:52:00,59.8,57.2,29.88,NNW,338,0.0,0.0,91,0.00,,,0.68,WUHU216HW,2013-05-10 03:52:00,
2013-05-09 22:57:00,59.8,57.2,29.89,NNW,338,0.0,0.0,91,0.00,,,0.68,WUHU216HW,2013-05-10 03:57:00,
2013-05-09 23:01:00,59.6,57.0,29.89,NNW,338,0.0,0.0,91,0.00,,,0.68,WUHU216HW,2013-05-10 04:01:00,
2013-05-09 23:06:00,59.4,56.8,29.88,NNW,338,0.0,0.0,91,0.00,,,0.68,WUHU216HW,2013-05-10 04:06:00,
2013-05-09 23:11:00,59.4,56.8,29.88,NNW,338,0.0,0.0,91,0.00,,,0.68,WUHU216HW,2013-05-10 04:11:00,
2013-05-09 23:16:00,59.2,56.6,29.88,NNW,338,0.0,0.0,91,0.00,,,0.68,WUHU216HW,2013-05-10 04:16:00,
2013-05-09 23:21:00,58.9,56.0,29.88,NNW,338,0.4,0.4,90,0.00,,,0.68,WUHU216HW,2013-05-10 04:21:00,
2013-05-09 23:26:00,58.7,56.1,29.88,NNW,338,0.0,0.4,91,0.00,,,0.68,WUHU216HW,2013-05-10 04:26:00,
2013-05-09 23:31:00,58.5,55.9,29.88,NNW,338,0.0,0.4,91,0.00,,,0.68,WUHU216HW,2013-05-10 04:31:00,
2013-05-09 23:36:00,58.3,55.4,29.88,WNW,293,0.4,0.4,90,0.00,,,0.68,WUHU216HW,2013-05-10 04:36:00,
2013-05-09 23:41:00,58.3,55.4,29.88,West,270,0.0,0.4,90,0.00,,,0.68,WUHU216HW,2013-05-10 04:41:00,
2013-05-09 23:46:00,58.3,55.7,29.88,West,270,1.6,1.6,91,0.00,,,0.68,WUHU216HW,2013-05-10 04:46:00,
2013-05-09 23:51:00,58.7,56.1,29.88,NNW,338,0.2,1.6,91,0.00,,,0.68,WUHU216HW,2013-05-10 04:51:00,
2013-05-09 23:56:00,58.7,56.1,29.88,NNW,338,1.1,1.6,91,0.00,,,0.68,WUHU216HW,2013-05-10 04:56:00,